Hourly Data Report for February 15, 2002

SHERBROOKE A
QUEBEC

45°26'00.000" N
71°41'00.000" W
241.40 m
7028124
71610
YSC

Download Data

Hourly Data (February 2002)
Hourly Data Report for February 15, 2002
TIME
LST
Temp Definition
°C
Dew Point Definition
°C
Rel Hum Definition
%
Precip. Amount Definition
mm

Wind Dir Definition
10's deg

Wind Spd Definition
km/h
Visibility Definition
km
Stn Press Definition
kPa
Hmdx Definition


Wind Chill Definition


Weather Definition


00:00 -2.2 LegendMM LegendMM   21 7 15.0 98.75   -5  
01:00 -2.0 LegendMM LegendMM   22 7 15.0 98.74   -5  
02:00 -2.1 LegendMM LegendMM   22 9 15.0 98.77   -6  
03:00 -1.5 LegendMM LegendMM   21 9 15.0 98.76   -5  
04:00 -2.4 LegendMM LegendMM   21 9 15.0 98.74   -6  
05:00 -2.7 LegendMM LegendMM   21 6 15.0 98.69   -5  
06:00 -1.9 LegendMM LegendMM   19 13 15.0 98.63   -6  
07:00 -1.8 LegendMM LegendMM   19 9 15.0 98.60   -5  
08:00 -1.1 -3.3 85   19 11 24.1 98.61   -5 Cloudy
09:00 0.9 -2.4 79   21 11 24.1 98.57     Mostly Cloudy
10:00 1.9 -2.5 73   19 15 24.1 98.52     Mostly Cloudy
11:00 3.8 -3.4 59   21 19 24.1 98.42     Mostly Cloudy
12:00 4.4 -3.6 56   19 15 24.1 98.30     Mostly Cloudy
13:00 4.6 -2.1 62   20 20 24.1 98.18     Mostly Cloudy
14:00 4.6 -6.4 45   19 20 24.1 98.09     Mostly Cloudy
15:00 4.5 -9.6 35   21 19 24.1 98.04     Mostly Cloudy
16:00 4.8 -8.5 37   21 9 24.1 97.96     Mostly Cloudy
17:00 4.3 -7.7 41   21 9 24.1 97.98     Mostly Cloudy
18:00 3.5 -6.9 46   20 7 15.0 97.98      
19:00 2.0 -6.7 52   25 6 15.0 98.01      
20:00 2.6 -6.1 53   18 6 15.0 97.97      
21:00 2.8 -5.7 54   19 4 15.0 97.94      
22:00 3.6 -4.9 54   18 11 15.0 97.90      
23:00 4.4 -4.6 52   19 11 15.0 97.85      

Notes on Data Quality.

Legend

  • E = Estimated
  • M = Missing
  • NA = Not Available*
  • [empty] = Indicates an unobserved value
Date modified: